DECAYED

ELECTRON R/B, 68292 (Decayed)

Orbit data source: Space-Track

ELECTRON R/B, 68292 was space debris in LEO originally from a launch on Fri, 20 Mar 2026 UTC launched from the Rocket Lab Launch Complex (RLLC). Debris objects in space refer to the collection of defunct objects orbiting the Earth. Examples of debris include non-operational satellites, rocket bodies, and fragments generated from explosions, collisions, or faulty payload assembly.

Not visible in the next 10 days
Identifier
68292, 2026-056B
Orbit
Decayed
Country
Flag of USUS
Related business
Manufacturer
Rocket Lab
Mission
Decayed spacecraft
Bus & Motor
ELECTRON ST2, Unknown motor
Mass
250 kg wet, ~250 kg dry
Launch date (UTC)
2026-03-20 (3 months ago)
Launch vehicle
Unknown
Launch site
Rocket Lab Launch Complex (RLLC)
Object type
Payload
Rocket body
Debris
Shape & HBR
Unknown shape, 8.0 m
Radar Cross Section
Large (>1 m²)

Expand to show TLE details & history
Last TLE update: 3 months ago

TLE from 3 months ago
0 ELECTRON R/B
1 68292U 26056B   26090.67010522  .18717014  12617-4  26663-3 0  9992
2 68292  50.2448 348.6579 0054105 288.0944  71.4175 16.41668461  1733
Epoch: 2026-03-31T16:04Z
TLE epoch observation values (Epoch: 2026-03-31T16:04:57.091Z)
Latitude
-0.00002°
Longitude
-81.62395°
Altitude
150.876 km
Speed
7.824 km/s
True Right ascension
23h 14m 37s
True Declination
0° 00' 00"
Sunlit
Object was in daylight at epoch
Visualization orbit readout
Latitude
Unknown
Longitude
Unknown
Altitude
Unknown
Speed
Unknown
Apparent Right ascension
Unknown
Apparent Declination
Unknown
Sunlit
N/A
Visualization observer readout
Local Sidereal Time
07:23:43
Azimuth
Unknown
Elevation
Unknown
Doppler factor
Unknown
Orbital elements
Apogee altitude
197.522 km
Perigee altitude
126.75 km
Semi-major axis
6,540.273 km
Eccentricity
0.00541
Inclination
50.2448°
RAAN
348.6579°
Arg. of periapsis
288.0944°
True anomaly
72.00643°
Mean anomaly
71.4175°
Eccentric anomaly
71.71184°
Mean motion
4.10345 °/min
Orbital period
87.73 mins
BSTAR
0.00026663
Loading maneuver chart data...
Computing Atmospheric mass density...
Loading historical data...
Loading historical data...
Loading historical data...
Loading historical data...
Loading historical data...
Loading historical data...
Loading historical data...
Other satellites on launch #56 in the year 2026 (2026-03-20 UTC)

Documentation

Showing up to 5 results
|